Date String (YYYY-MM-DD hh:mm:ss) UTC,Instrument flags,absolute air pressure of the measurement (hPa),sample flow rate (lpm),inlet stack bypass flow (lpm),air temperature of the measurement (°C),ambient temperature measured by the external sensor (°C),aerosol sample conditioner tube jacket temperature (°C),OPC LED temperature (°C),internal box temperature (°C),relative humidity of the measurement (%),span deviation,mass concentration of particles derived from Lorenz-Mie calculation of OPC scattering (μg/m³),mass concentration of particles derived from Lorenz-Mie calculation of OPC scattering (μg/m³),mass concentration of particles derived from Lorenz-Mie calculation of OPC scattering (μg/m³)
DateTimeUTC,F1_M11,P_M11,Q1_M11,Q2_M11,T1_M11,T2_M11,T3_M11,T4_M11,T5_M11,U1_M11,ZSPAN_M11,X0_M11,X2_M11,X1_M11
2024-03-30 04:00:00,SystemResetWarning,0825.9,4.99,000.00,020.6,020.0,000.0,029.2,022.4,28.4,0000.0,0008.79,0005.40,0005.03
2024-03-30 04:01:00,SystemResetWarning,0825.8,5.00,000.00,020.6,020.0,000.0,029.1,022.5,28.4,0000.0,0008.83,0005.43,0005.03
2024-03-30 04:02:00,SystemResetWarning,0825.9,5.01,000.00,020.6,020.0,000.0,029.2,022.5,28.4,0000.0,0008.86,0005.42,0005.00
2024-03-30 04:03:00,SystemResetWarning,0825.9,5.01,000.00,020.6,020.0,000.0,029.2,022.5,28.5,0000.0,0008.95,0005.44,0005.01
2024-03-30 04:04:00,SystemResetWarning,0825.9,5.00,000.00,020.6,020.0,000.0,029.2,022.5,28.4,0000.0,0008.96,0005.49,0005.08
2024-03-30 04:05:00,SystemResetWarning,0825.9,5.00,000.00,020.6,020.0,000.0,029.1,022.5,28.4,0000.0,0009.05,0005.58,0005.16
2024-03-30 04:06:00,SystemResetWarning,0825.9,4.99,000.00,020.6,020.0,000.0,029.2,022.5,28.5,0000.0,0009.06,0005.64,0005.22
2024-03-30 04:07:00,SystemResetWarning,0825.9,4.99,000.00,020.6,020.0,000.0,029.2,022.4,28.7,0000.0,0009.35,0005.71,0005.27
2024-03-30 04:08:00,SystemResetWarning,0825.9,4.99,000.00,020.6,020.0,000.0,029.2,022.4,28.6,0000.0,0009.52,0005.72,0005.29
2024-03-30 04:09:00,SystemResetWarning,0825.9,5.00,000.00,020.6,020.0,000.0,029.2,022.4,28.6,0000.0,0009.43,0005.71,0005.29
2024-03-30 04:10:00,SystemResetWarning,0825.9,5.00,000.00,020.6,020.0,000.0,029.2,022.4,28.5,0000.0,0008.56,0005.68,0005.30
2024-03-30 04:11:00,SystemResetWarning,0825.9,5.01,000.00,020.6,020.0,000.0,029.1,022.4,28.5,0000.0,0008.62,0005.70,0005.34
2024-03-30 04:12:00,SystemResetWarning,0825.9,5.01,000.00,020.6,020.0,000.0,029.1,022.5,28.4,0000.0,0008.66,0005.74,0005.38
2024-03-30 04:13:00,SystemResetWarning,0825.9,4.99,000.00,020.6,020.0,000.0,029.1,022.5,28.5,0000.0,0008.66,0005.78,0005.43
2024-03-30 04:14:00,SystemResetWarning,0825.8,5.00,000.00,020.6,020.0,000.0,029.2,022.5,28.5,0000.0,0008.68,0005.83,0005.46
2024-03-30 04:15:00,SystemResetWarning,0825.8,5.00,000.00,020.6,020.0,000.0,029.2,022.5,28.5,0000.0,0008.83,0005.87,0005.45
2024-03-30 04:16:00,SystemResetWarning,0825.8,4.99,000.00,020.6,020.0,000.0,029.2,022.5,28.6,0000.0,0008.91,0005.88,0005.45
2024-03-30 04:17:00,SystemResetWarning,0825.8,5.01,000.00,020.6,020.0,000.0,029.2,022.5,28.5,0000.0,0008.85,0005.87,0005.47
2024-03-30 04:18:00,SystemResetWarning,0825.8,5.01,000.00,020.6,020.0,000.0,029.2,022.4,28.4,0000.0,0008.72,0005.90,0005.51
2024-03-30 04:19:00,SystemResetWarning,0825.8,5.00,000.00,020.6,020.0,000.0,029.2,022.4,28.5,0000.0,0008.51,0005.94,0005.58
2024-03-30 04:20:00,SystemResetWarning,0825.9,5.00,000.00,020.6,020.0,000.0,029.2,022.4,28.5,0000.0,0008.52,0006.01,0005.65
2024-03-30 04:21:00,SystemResetWarning,0825.9,5.00,000.00,020.6,020.0,000.0,029.2,022.4,28.5,0000.0,0008.63,0006.12,0005.73
2024-03-30 04:22:00,SystemResetWarning,0825.8,5.00,000.00,020.6,020.0,000.0,029.1,022.4,28.5,0000.0,0008.68,0006.20,0005.77
2024-03-30 04:23:00,SystemResetWarning,0825.8,5.00,000.00,020.6,020.0,000.0,029.1,022.4,28.5,0000.0,0008.79,0006.25,0005.81
2024-03-30 04:24:00,SystemResetWarning,0825.8,5.00,000.00,020.6,020.0,000.0,029.2,022.4,28.7,0000.0,0009.28,0006.30,0005.84
2024-03-30 04:25:00,SystemResetWarning,0825.7,5.00,000.00,020.6,020.0,000.0,029.2,022.4,28.6,0000.0,0009.67,0006.31,0005.87
2024-03-30 04:26:00,SystemResetWarning,0825.8,4.99,000.00,020.6,020.0,000.0,029.2,022.4,28.6,0000.0,0010.00,0006.34,0005.91
2024-03-30 04:27:00,SystemResetWarning,0825.8,5.00,000.00,020.6,020.0,000.0,029.2,022.4,28.6,0000.0,0009.86,0006.33,0005.94
2024-03-30 04:28:00,SystemResetWarning,0825.8,5.01,000.00,020.6,020.0,000.0,029.1,022.4,28.5,0000.0,0009.91,0006.36,0005.97
2024-03-30 04:29:00,SystemResetWarning,0825.8,4.97,000.00,020.6,020.0,000.0,029.1,022.4,28.5,0000.0,0009.94,0006.38,0005.97
2024-03-30 04:30:00,SystemResetWarning,0825.8,5.00,000.00,020.6,020.0,000.0,029.1,022.4,28.5,0000.0,0010.02,0006.37,0005.95
2024-03-30 04:31:00,SystemResetWarning,0825.8,5.01,000.00,020.6,020.0,000.0,029.1,022.4,28.5,0000.0,0010.21,0006.37,0005.97
2024-03-30 04:32:00,SystemResetWarning,0825.8,5.01,000.00,020.6,020.0,000.0,029.1,022.4,28.6,0000.0,0010.17,0006.36,0005.98
2024-03-30 04:33:00,SystemResetWarning,0825.8,5.00,000.00,020.6,020.0,000.0,029.1,022.5,28.6,0000.0,0010.18,0006.36,0006.00
2024-03-30 04:34:00,SystemResetWarning,0825.8,5.00,000.00,020.6,020.0,000.0,029.1,022.4,28.5,0000.0,0010.11,0006.37,0006.03
2024-03-30 04:35:00,SystemResetWarning,0825.8,5.00,000.00,020.6,020.0,000.0,029.2,022.4,28.5,0000.0,0009.65,0006.39,0006.08
2024-03-30 04:36:00,SystemResetWarning,0825.7,5.00,000.00,020.6,020.0,000.0,029.2,022.4,28.5,0000.0,0009.27,0006.42,0006.12
2024-03-30 04:37:00,SystemResetWarning,0825.7,5.00,000.00,020.6,020.0,000.0,029.1,022.4,28.5,0000.0,0008.89,0006.45,0006.16
2024-03-30 04:38:00,SystemResetWarning,0825.6,4.99,000.00,020.6,020.0,000.0,029.1,022.4,28.5,0000.0,0008.98,0006.51,0006.21
2024-03-30 04:39:00,SystemResetWarning,0825.7,5.00,000.00,020.6,020.0,000.0,029.1,022.4,28.6,0000.0,0009.09,0006.59,0006.27
2024-03-30 04:40:00,SystemResetWarning,0825.8,5.01,000.00,020.6,020.0,000.0,029.1,022.4,28.6,0000.0,0009.25,0006.64,0006.31
2024-03-30 04:41:00,SystemResetWarning,0825.7,5.01,000.00,020.6,020.0,000.0,029.1,022.4,28.6,-000.1,0009.47,0006.69,0006.38
2024-03-30 04:42:00,SystemResetWarning,0825.8,5.00,000.00,020.6,020.0,000.0,029.1,022.4,28.6,-000.2,0009.56,0006.73,0006.42
2024-03-30 04:43:00,SystemResetWarning,0825.8,4.99,000.00,020.6,020.0,000.0,029.1,022.4,28.8,-000.2,0009.59,0006.79,0006.46
2024-03-30 04:44:00,SystemResetWarning,0825.8,5.00,000.00,020.6,020.0,000.0,029.1,022.4,29.0,-000.2,0009.49,0006.82,0006.51
2024-03-30 04:45:00,SystemResetWarning,0825.7,5.00,000.00,020.6,020.0,000.0,029.1,022.4,28.8,0000.0,0009.59,0006.89,0006.57
2024-03-30 04:46:00,SystemResetWarning,0825.8,5.00,000.00,020.6,020.0,000.0,029.1,022.4,28.6,0000.0,0009.68,0006.95,0006.61
2024-03-30 04:47:00,SystemResetWarning,0825.8,5.01,000.00,020.6,020.0,000.0,029.1,022.4,28.6,0000.0,0009.73,0007.00,0006.66
2024-03-30 04:48:00,SystemResetWarning,0825.7,5.00,000.00,020.6,020.0,000.0,029.1,022.4,28.6,0000.0,0009.79,0007.08,0006.72
2024-03-30 04:49:00,SystemResetWarning,0825.7,4.99,000.00,020.6,020.0,000.0,029.1,022.4,28.7,0000.0,0009.74,0007.12,0006.78
2024-03-30 04:50:00,SystemResetWarning,0825.6,5.01,000.00,020.6,020.0,000.0,029.1,022.4,28.6,0000.0,0009.83,0007.17,0006.83
2024-03-30 04:51:00,SystemResetWarning,0825.6,5.01,000.00,020.6,020.0,000.0,029.1,022.4,28.7,0000.0,0009.83,0007.22,0006.87
2024-03-30 04:52:00,SystemResetWarning,0825.6,5.00,000.00,020.6,020.0,000.0,029.1,022.4,28.8,0000.0,0009.62,0007.26,0006.89
2024-03-30 04:53:00,SystemResetWarning,0825.6,4.99,000.00,020.6,020.0,000.0,029.1,022.4,28.9,0000.0,0009.39,0007.31,0006.92
2024-03-30 04:54:00,SystemResetWarning,0825.6,4.99,000.00,020.6,020.0,000.0,029.1,022.4,28.8,0000.0,0009.36,0007.31,0006.96
2024-03-30 04:55:00,SystemResetWarning,0825.6,5.00,000.00,020.6,020.0,000.0,029.1,022.4,28.8,0000.0,0009.44,0007.37,0007.01
2024-03-30 04:56:00,SystemResetWarning,0825.6,5.01,000.00,020.6,020.0,000.0,029.1,022.4,28.8,0000.0,0009.44,0007.41,0007.05
2024-03-30 04:57:00,SystemResetWarning,0825.6,5.01,000.00,020.6,020.0,000.0,029.1,022.4,28.8,0000.0,0009.42,0007.43,0007.08
2024-03-30 04:58:00,SystemResetWarning,0825.6,4.99,000.00,020.6,020.0,000.0,029.1,022.4,28.8,0000.0,0009.43,0007.45,0007.11
2024-03-30 04:59:00,SystemResetWarning,0825.5,4.99,000.00,020.6,020.0,000.0,029.1,022.4,28.7,0000.0,0009.46,0007.46,0007.11
